Hourly Data Report for October 20, 2016

All times are specified in Local Standard Time (LST). Add 1 hour to adjust for Daylight Saving Time where and when it is observed.

TORONTO INTL A
ONTARIO

43°40'36.000" N
79°37'50.000" W
173.40 m
6158731
71624
YYZ

Download Data

Hourly Data (October 2016)
Hourly Data Report for October 20, 2016
Temp Definition
°C
Dew Point Temp Definition
°C
Rel Hum Definition
%
Wind Dir Definition
10's deg

Wind Spd Definition
km/h
Visibility Definition
km
Stn Press Definition
kPa
Hmdx Definition


Wind Chill Definition


Weather Definition


TIME
00:00 Legend Double Dagger 14.5 11.3 81 36 2 24.1 99.85     LegendNANA
01:00 Legend Double Dagger 14.4 11.4 82 28 5 24.1 99.89     Cloudy
02:00 Legend Double Dagger 14.8 11.2 79 34 9 24.1 99.93     Rain Showers
03:00 Legend Double Dagger 13.6 11.7 88 4 7 24.1 99.90     Rain Showers
04:00 Legend Double Dagger 13.5 12.2 92 4 10 24.1 99.86     Rain Showers
05:00 Legend Double Dagger 14.0 12.4 90 16 6 24.1 99.82     Rain Showers
06:00 Legend Double Dagger 14.1 12.7 91 13 6 16.1 99.86     Rain Showers
07:00 Legend Double Dagger 14.7 13.8 94 12 10 11.3 99.91     Rain Showers
08:00 Legend Double Dagger 14.5 13.4 93 7 7 24.1 99.82     Rain
09:00 Legend Double Dagger 14.4 11.9 85 12 12 24.1 99.83     Rain
10:00 Legend Double Dagger 14.1 9.6 74 10 17 24.1 99.77     Rain
11:00 Legend Double Dagger 13.5 9.6 77 9 10 24.1 99.76     Rain
12:00 Legend Double Dagger 13.0 10.4 84 9 11 24.1 99.69     Rain
13:00 Legend Double Dagger 12.4 10.5 88 8 10 16.1 99.63     Rain
14:00 Legend Double Dagger 12.1 11.0 93 6 10 11.3 99.58     Rain
15:00 Legend Double Dagger 12.1 11.2 94 3 16 12.9 99.60     Rain
16:00 Legend Double Dagger 11.6 10.7 94 2 17 9.7 99.59     Rain
17:00 Legend Double Dagger 11.3 10.4 94 4 15 16.1 99.51     Rain
18:00 Legend Double Dagger 11.5 10.4 93 35 18 16.1 99.53     Rain
19:00 Legend Double Dagger 11.3 10.4 94 36 21 16.1 99.56     Rain
20:00 Legend Double Dagger 11.2 10.3 94 1 19 16.1 99.46     Rain
21:00 Legend Double Dagger 11.4 10.5 94 1 18 24.1 99.44     Rain
22:00 Legend Double Dagger 11.6 10.2 91 1 18 24.1 99.37     Cloudy
23:00 Legend Double Dagger 11.3 10.1 92 1 20 24.1 99.34     Rain

Notes on Data Quality.

Legend

  • E = Estimated
  • M = Missing
  • NA = Not Available
  • ‡ = Partner data that is not subject to review by the National Climate Archives
Date modified: